SCP
0 0 0 0 0 -0 0 0 0 0 0 0 0 0 0 0 0 0 0 0 0 0 0 0 0 0 0 0 0 0 0 0 0 0 0 0 0 0 0 0 0 0 0 0 0 0 0
0 0 0 0 0 0 0 0 0 0 0 0 0 0 0 0 0 0 0 0 0 0 0 0 0 0 0 0 0 0 0 0 0 0 0 0 0 0 0 0 0 0 0 0 0 0 0
0 0 0 0 0 0 0 0 0 0 0 0 0 0 0 0 0 0 0 0 0 0 0 0 0 0 0 0 0 0 0 0 0 0 0 0 0 0 0 0 0 0 0 0 0 0 0
0 0 0 0 -0 0 0 0 0 0 0 0 0 0 0 0 0 0 0 0 0 0 -0 0 0 0 0 0 0 0 0 0 0 0 0 0 0 0 0 0 0 0 0 0 0 0 0
0 0 0 0 0 0 0 0 0 0 0 0 0 0 0 0 0 0 0 0 0 0 0 0 0 0 0 0 0 0 0 0 0 0 0 0 0 0 0 0 0 0 0 0 0 0 0
-0 0 0 0 0 -0 0 0 0 -0 -0 -0 0 0 0 0 0 0 -0 0 0 0 0 0 0 0 0 0 0 0 0 0 0 0 0 0 0 0 0 0 0 0 0 0 0 0 0
0 0 0 0 0 0 0 0 0 0 0 0 -0 -0 0 0 0 -0 0 0 0 0 0 0 0 0 0 0 0 0 0 0 0 0 0 0 0 -0 -0 0 0 0 0 -0 -0 0 0
0 0 0 0 0 0 0 0 -0 0 0 0 -0 -0 0 0 0 -0 -0 0 0 0 0 0 0 0 0 0 0 0 0 0 0 0 -0 -0 -0 -0 0 0 -0 -0 -0 -0 -0 0 0
0 0 0 0 0 0 0 0 0 -0 -0 0 -0 -0 -0 0 0 -0 -0 0 0 0 0 0 0 0 0 0 0 0 0 0 0 0 0 0 -0 0 -0 0 -0 -0 -0 -0 -0 -0 0
0 0 0 0 -0 0 -0 0 0 -0 -0 -0 0 0 0 0 0 -0 0 -0 0 0 0 0 0 0 0 0 0 0 0 0 0 0 -0 -0 -0 0 0 -0 -0 -0 -0 -0 -0 -0 -0
-0 0 0 0 -0 0 0 0 0 0 0 -0 0 -0 0 0 0 0 0 0 0 0 0 0 0 0 0 0 0 0 0 0 -0 -0 0 0 0 0 -0 0 -0 -0 -0 -0 -0 0 0
-0 -0 0 0 0 0 0 -0 0 -0 -0 0 -0 -0 0 0 0 0 0 0 0 0 0 0 0 0 0 0 0 0 0 0 -0 -0 -0 -0 0 0 -0 0 -0 -0 -0 -0 0 0 0
-0 -0 0 0 0 0 0 0 0 0 -0 -0 -0 0 0 0 0 0 0 0 0 0 0 0 0 0 0 0 0 0 0 -0 -0 -0 0 -0 0 0 0 -0 -0 0 0 0 0 0 0
-0 -0 0 0 0 0 0 0 0 0 0 0 0 0 0 0 0 0 0 0 0 0 0 0 0 0 0 0 0 0 0 0 0 0 0 0 0 0 0 0 -0 0 0 -0 -0 0 0
-0 -0 0 0 0 0 0 0 0 0 0 0 0 0 0 0 0 0 0 0 0 0 0 0 0 0 0 0 0 0 0 0 0 0 0 0 0 -0 -0 0 0 0 0 0 0 0 0
-0 -0 0 -0 -0 0 0 0 0 0 0 0 0 0 0 0 0 0 0 0 0 0 0 0 0 0 0 0 0 0 0 0 0 0 0 0 0 0 0 0 -0 0 0 0 0 0 0
0 -0 -0 0 -0 0 0 0 0 0 0 0 0 0 0 0 0 0 0 0 0 0 0 0 0 0 0 0 0 0 0 0 0 0 0 0 0 0 0 0 0 0 0 0 0 0 0
-0 -0 -0 0 0 0 0 0 0 -0 0 0 0 0 0 0 0 0 0 0 0 0 0 0 0 0 0 0 0 0 0 0 0 0 0 0 0 0 0 0 0 0 0 0 0 0 0
-0 -0 -0 0 0 0 0 0 0 0 0 0 0 0 0 0 0 0 0 0 0 0 0 0 0 0 0 0 0 0 0 0 0 0 0 0 0 0 0 0 0 0 0 0 0 0 0
0 -0 -0 0 0 0 0 0 0 0 0 0 0 0 0 0 0 0 0 0 0 0 0 0 0 0 0 0 0 0 0 0 0 0 0 0 0 0 0 0 0 0 0 0 0 0 0
0 -0 -0 0 0 0 -0 -0 0 0 0 0 0 0 0 0 0 0 0 0 0 0 0 0 0 0 0 0 0 0 0 0 0 0 0 0 0 0 0 0 0 0 0 -0 0 0 0
0 -0 -0 -0 -0 -0 -0 -0 -0 -0 0 0 0 0 0 0 0 0 0 0 0 0 0 0 0 0 0 0 0 0 0 0 0 0 0 0 0 0 -0 -0 -0 0 -0 -0 -0 -0 -0
0 -0 -0 -0 -0 -0 -0 -0 -0 -0 -0 -0 0 0 0 0 0 0 0 0 0 0 0 0 0 0 0 0 0 0 0 0 0 0 0 0 0 0 -0 -0 -0 -0 0 0 0 0 0
0 -0 -0 -0 -0 -0 -0 -0 -0 -0 -0 -0 0 0 0 0 0 0 0 0 0 0 0 0 0 0 0 0 0 0 0 0 0 0 0 0 0 0 0 0 0 0 0 0 0 0 0
-0 -0 -0 -0 -0 -0 -0 -0 -0 -0 -0 -0 -0 -0 0 0 0 0 0 0 0 0 0 0 0 0 0 0 0 0 0 0 0 0 0 -0 -0 -0 0 0 0 0 0 0 0 0 0
0 -0 -0 -0 -0 -0 -0 -0 -0 -0 -0 -0 -0 -0 -0 -0 0 0 0 0 0 0 0 0 0 0 -0 -0 0 0 0 0 0 0 -0 -0 -0 -0 0 0 0 0 -0 -0 0 0 0
0 -0 -0 0 -0 -0 -0 -0 -0 -0 -0 -0 -0 -0 -0 -0 -0 -0 -0 0 0 -0 0 0 -0 -0 -0 0 0 0 0 0 0 0 0 0 0 0 0 0 -0 0 0 0 0 0 0
0 -0 -0 -0 0 -0 0 -0 -0 -0 -0 -0 -0 -0 -0 -0 -0 -0 -0 -0 -0 -0 -0 -0 -0 -0 0 0 0 0 0 0 0 0 0 0 0 0 0 0 -0 0 0 0 0 0 0
0 0 0 0 0 0 0 0 0 -0 -0 -0 -0 -0 -0 -0 -0 -0 -0 -0 -0 -0 -0 -0 -0 -0 -0 0 0 0 0 0 0 0 0 0 0 0 -0 0 0 0 0 0 0 0 0
Wind_Speed_500mb
56 55 58 54 58 50 57 49 44 40 46 47 42 35 32 31 33 36 36 38 34 41 38 40 51 38 26 13 12 18 20 23 27 28 24 15 13 10 7 4 10 8 8 16 22 28 35
71 61 57 49 51 57 56 58 48 42 43 48 40 30 30 35 36 39 40 41 41 34 40 46 46 40 29 11 14 21 20 23 24 24 21 12 8 2 2 5 4 11 16 21 19 38 36
94 64 61 49 53 62 51 55 44 40 47 45 34 28 26 33 36 42 45 45 39 36 49 60 52 36 29 15 19 25 17 17 21 18 21 7 5 4 3 6 15 15 14 16 28 30 15
67 55 54 64 71 63 46 49 47 47 46 42 31 29 28 31 35 40 50 38 28 33 48 68 46 37 13 26 27 21 20 21 17 14 15 7 1 2 1 8 14 8 8 7 10 1 15
80 67 65 64 56 55 52 50 46 47 46 37 33 29 28 27 31 31 33 1 28 48 66 50 50 28 6 34 37 20 19 26 22 16 9 4 0 3 1 2 8 5 7 10 12 14 10
76 65 59 60 51 51 55 52 51 53 48 40 35 30 25 22 25 25 18 36 59 58 55 39 34 20 19 28 38 27 21 22 14 14 9 5 2 2 1 6 9 11 11 11 15 9 20
81 64 61 54 57 59 56 52 49 49 41 30 23 24 19 17 19 19 2 28 31 21 14 10 25 11 27 30 38 29 27 24 20 11 7 8 4 17 25 17 10 6 8 26 34 26 28
74 65 60 60 62 62 61 58 49 46 39 28 18 16 14 12 13 10 11 13 13 12 8 25 23 39 48 42 26 27 23 14 12 8 6 4 18 21 13 14 16 17 27 38 35 27 11
68 63 62 64 72 72 77 67 55 41 31 24 15 12 9 3 6 8 8 5 10 19 10 14 27 29 28 24 17 31 26 9 7 7 12 12 10 7 14 12 16 21 26 32 26 25 21
62 60 63 73 79 86 85 62 38 39 30 18 6 5 3 6 8 19 9 17 8 7 6 9 12 3 14 14 11 25 26 5 4 13 8 14 13 11 14 16 20 24 9 23 17 13 6
62 61 69 73 82 84 92 67 46 45 42 19 11 10 10 9 14 11 16 17 10 6 9 3 7 16 15 5 27 11 21 7 7 6 6 13 1 7 11 10 11 15 17 19 10 8 6
62 64 69 79 83 81 83 76 57 34 20 30 20 17 15 11 11 11 6 22 11 8 9 8 6 7 8 4 5 10 5 4 3 6 8 15 9 8 8 7 20 21 18 5 9 4 6
59 63 67 79 77 82 89 84 42 27 47 35 28 23 19 17 13 10 14 10 8 9 2 8 11 10 6 7 6 5 7 5 7 4 6 7 7 6 7 10 3 9 3 4 4 2 4
54 61 65 73 71 77 87 79 61 45 43 31 39 40 35 29 16 17 17 9 16 4 4 5 9 14 6 11 5 8 3 5 11 3 5 4 8 6 7 8 4 7 6 4 5 2 1
52 55 59 64 64 67 74 71 51 51 48 57 48 35 33 31 20 11 8 10 6 3 5 12 12 7 5 3 7 5 6 5 7 9 3 4 6 7 13 10 4 3 6 6 5 3 5
49 53 55 55 52 54 55 61 54 57 54 48 39 36 31 21 11 10 6 9 6 8 4 10 5 8 8 8 5 2 7 4 4 7 5 3 6 9 6 8 21 13 4 5 3 2 4
47 49 52 51 41 40 38 32 42 37 27 11 11 9 15 15 16 16 8 8 5 10 5 6 3 8 7 8 8 8 7 5 6 6 10 3 3 9 2 7 7 3 8 9 3 6 2
44 47 48 48 40 26 25 23 16 20 11 8 16 6 11 31 15 7 3 4 6 12 20 7 4 8 10 14 8 6 5 6 16 7 5 9 2 6 10 8 7 6 9 6 5 2 5
41 44 44 44 42 25 16 18 7 9 2 9 8 7 17 29 7 6 7 7 10 6 4 0 4 2 7 9 8 4 6 8 12 7 5 3 4 7 16 11 10 8 12 8 4 6 2
40 40 43 44 39 27 15 17 13 11 7 16 8 6 12 15 7 5 9 8 9 16 7 6 4 2 4 6 2 6 2 3 4 3 6 3 5 6 8 9 7 12 18 20 6 7 3
40 39 44 43 35 27 13 7 12 6 6 10 10 2 4 6 9 4 5 7 10 13 15 31 13 12 2 7 7 7 4 5 2 7 3 4 3 6 6 6 3 5 10 19 16 0 6
36 32 36 40 27 25 22 7 10 9 5 8 5 4 3 4 14 5 11 12 11 8 12 10 10 14 18 9 6 7 9 7 2 7 5 6 1 5 6 5 8 5 15 15 13 13 12
31 28 34 38 25 18 23 14 12 13 2 6 13 6 6 10 6 6 6 5 9 4 11 13 4 3 12 6 18 22 13 5 2 1 3 4 6 5 7 9 11 7 7 4 2 5 3
29 27 25 29 19 15 18 12 9 14 14 14 13 6 5 5 3 1 2 5 9 8 5 8 12 4 7 22 11 2 2 6 8 7 1 5 5 4 5 7 5 9 3 2 2 3 3
26 20 20 20 17 10 13 11 6 13 7 4 13 9 7 3 6 8 7 5 6 14 6 3 7 9 19 10 6 8 8 9 6 5 6 4 7 4 4 3 9 6 5 6 5 7 3
24 12 16 8 16 10 7 17 15 15 10 5 10 10 8 5 4 6 7 6 2 4 10 5 8 12 14 6 6 3 4 4 7 16 6 8 8 6 3 2 9 5 3 6 4 8 13
25 7 9 4 16 16 8 21 23 14 10 4 3 9 5 3 1 4 3 5 6 4 1 8 12 9 13 5 4 1 5 2 4 5 4 6 5 3 2 5 11 7 11 8 3 9 11
22 8 4 6 12 19 17 15 17 7 3 11 6 8 5 6 5 2 3 5 5 7 2 11 6 9 8 8 3 3 3 5 4 7 5 7 5 6 2 2 11 17 11 11 8 11 16
18 12 9 9 10 15 18 16 15 14 7 6 7 9 5 5 2 3 1 1 2 2 5 7 1 3 4 4 1 1 4 2 3 7 1 5 11 6 14 10 7 29 7 12 15 15 16
Wind_Direction_500mb
330 327 326 330 335 322 316 314 301 302 311 302 308 296 290 294 298 302 299 291 286 234 210 219 225 212 190 203 221 157 153 153 164 167 158 159 158 158 175 247 328 227 282 306 302 297 287
329 319 314 317 330 332 314 314 303 304 310 302 310 301 292 297 301 304 297 292 279 248 205 204 210 186 184 197 187 188 172 162 167 166 157 174 157 103 202 228 179 320 314 301 302 286 276
337 315 316 312 330 327 320 313 315 311 313 304 312 312 301 297 302 305 303 291 270 242 196 199 213 188 178 163 144 162 177 174 164 149 148 159 231 175 26 320 338 310 310 311 281 261 255
345 336 321 323 329 324 317 323 317 311 306 308 309 307 302 301 305 311 309 288 227 225 205 187 194 175 160 156 169 175 178 151 166 171 184 214 311 176 344 320 340 311 324 323 289 180 253
356 342 331 336 338 336 324 325 315 312 307 306 309 308 299 302 309 325 336 290 169 170 164 173 160 148 147 152 167 176 186 175 182 193 187 164 214 227 83 21 356 317 262 258 297 250 236
353 346 345 342 340 328 328 326 319 315 306 295 302 287 293 307 314 329 3 142 129 139 134 140 144 122 164 173 173 170 169 151 168 165 158 203 116 65 82 130 223 222 259 259 254 286 314
354 350 344 343 337 333 330 327 319 314 317 317 300 289 290 298 303 327 358 59 123 101 123 164 158 96 150 146 170 169 170 166 160 158 153 179 133 221 216 206 206 207 259 280 276 269 284
355 351 348 345 339 332 329 319 313 311 313 313 302 293 293 290 309 333 328 353 67 132 102 89 124 118 140 135 126 155 182 152 162 188 210 172 244 238 230 225 236 249 265 275 284 274 259
354 354 350 343 337 335 326 315 305 290 294 298 288 269 269 325 357 79 93 339 96 111 76 67 88 123 144 140 140 164 170 171 169 197 201 189 237 166 188 232 230 252 260 274 270 295 263
358 360 354 349 346 343 343 351 336 323 252 264 256 222 187 128 113 107 92 133 97 82 87 81 135 130 144 147 91 166 175 192 199 222 216 232 246 223 223 239 225 274 237 266 283 294 300
7 6 358 354 349 349 352 353 339 331 321 198 170 142 122 117 120 110 110 157 139 345 94 101 121 155 151 68 138 161 181 206 227 240 145 254 163 257 244 223 195 259 295 288 313 253 328
11 8 6 355 353 359 357 354 346 345 118 142 144 129 133 130 110 88 108 128 102 39 72 111 124 132 116 134 111 117 137 208 313 263 220 251 268 249 236 249 232 268 285 263 252 166 240
8 9 7 1 3 7 4 3 14 83 127 127 120 116 112 94 90 115 126 122 60 71 258 124 136 133 136 144 103 125 159 196 209 236 318 292 227 238 237 288 310 215 306 273 183 211 281
8 11 10 7 13 17 15 30 67 83 118 115 120 110 100 90 81 109 125 52 67 341 62 153 116 114 171 168 120 165 104 266 215 209 244 336 341 212 167 239 278 259 223 275 313 170 253
5 10 15 18 22 26 28 43 65 86 102 117 121 106 82 76 78 51 8 45 133 228 96 115 129 127 149 200 122 109 229 250 165 197 210 301 290 300 208 227 220 345 269 251 277 50 85
7 10 18 23 27 31 37 55 72 95 106 115 108 85 70 65 62 360 89 101 26 327 306 142 121 160 140 170 116 154 192 212 203 180 173 5 298 195 275 202 233 214 334 317 306 44 68
16 14 15 22 32 29 36 59 94 92 93 87 58 61 37 46 17 60 56 61 320 308 134 215 262 113 126 150 204 204 228 242 215 174 176 279 279 293 103 212 283 289 269 222 250 156 155
17 16 19 15 19 38 44 41 99 132 80 67 42 39 38 18 52 42 67 159 219 247 251 291 213 100 156 184 170 202 232 246 186 196 230 222 201 285 248 258 243 220 260 265 124 218 58
16 25 24 19 10 40 64 45 98 158 15 35 71 57 13 9 67 17 325 272 216 15 143 324 59 209 174 168 105 164 209 223 198 206 230 346 349 334 339 358 6 2 327 299 130 71 75
11 23 25 24 20 45 77 61 63 113 75 20 27 39 19 36 46 20 341 13 8 358 357 7 21 93 76 58 36 134 229 284 225 225 191 101 89 164 174 227 266 329 333 353 84 75 183
8 19 24 29 36 48 61 24 48 20 3 17 35 58 22 347 352 304 303 4 13 9 9 25 19 16 113 64 30 33 2 356 35 15 46 93 86 24 313 307 49 327 339 353 42 3 119
13 13 35 33 47 40 35 7 358 48 61 38 84 113 191 283 306 325 8 358 28 355 23 2 63 7 50 76 24 3 342 38 3 339 52 12 255 59 316 350 36 360 359 4 21 28 61
16 7 31 35 45 48 46 52 32 27 14 88 89 52 319 350 9 54 328 348 360 22 44 52 319 59 39 325 305 297 288 307 349 242 355 73 118 66 284 342 333 350 328 10 23 24 149
9 6 21 47 58 42 43 59 30 35 83 92 68 0 356 325 57 315 53 91 46 13 112 354 21 72 327 327 323 10 340 341 1 16 133 122 98 95 238 4 17 246 272 280 84 33 34
1 8 354 62 78 51 25 20 23 5 325 13 8 16 357 44 337 16 9 84 55 51 53 27 32 3 345 4 45 13 344 350 323 322 359 70 123 65 112 179 286 290 240 188 158 276 252
351 10 344 65 104 76 17 351 325 319 311 260 349 22 20 85 318 327 314 345 63 4 349 322 355 350 0 60 61 109 231 239 312 332 15 84 71 117 114 174 225 236 172 135 107 276 190
340 341 339 337 133 111 56 336 326 306 288 216 325 351 332 24 169 348 349 326 346 7 264 322 344 0 9 39 58 154 282 230 291 285 316 341 359 169 228 252 284 229 148 121 109 247 161
335 295 289 300 168 127 91 41 7 6 214 218 310 324 292 312 212 223 324 341 348 360 53 338 355 357 16 43 72 266 213 259 320 244 204 193 153 220 123 259 292 154 114 169 202 153 174
327 277 248 247 207 153 116 96 52 31 69 157 298 309 313 304 263 226 343 347 304 351 336 5 53 351 6 52 343 316 297 331 196 282 343 265 192 201 184 218 244 192 215 212 181 179 191
Wind_Speed_850mb
56 55 58 54 58 50 57 49 44 40 46 47 42 35 32 31 33 36 36 38 34 41 38 40 51 38 26 13 12 18 20 23 27 28 24 15 13 10 7 4 10 8 8 16 22 28 35
71 61 57 49 51 57 56 58 48 42 43 48 40 30 30 35 36 39 40 41 41 34 40 46 46 40 29 11 14 21 20 23 24 24 21 12 8 2 2 5 4 11 16 21 19 38 36
94 64 61 49 53 62 51 55 44 40 47 45 34 28 26 33 36 42 45 45 39 36 49 60 52 36 29 15 19 25 17 17 21 18 21 7 5 4 3 6 15 15 14 16 28 30 15
67 55 54 64 71 63 46 49 47 47 46 42 31 29 28 31 35 40 50 38 28 33 48 68 46 37 13 26 27 21 20 21 17 14 15 7 1 2 1 8 14 8 8 7 10 1 15
80 67 65 64 56 55 52 50 46 47 46 37 33 29 28 27 31 31 33 1 28 48 66 50 50 28 6 34 37 20 19 26 22 16 9 4 0 3 1 2 8 5 7 10 12 14 10
76 65 59 60 51 51 55 52 51 53 48 40 35 30 25 22 25 25 18 36 59 58 55 39 34 20 19 28 38 27 21 22 14 14 9 5 2 2 1 6 9 11 11 11 15 9 20
81 64 61 54 57 59 56 52 49 49 41 30 23 24 19 17 19 19 2 28 31 21 14 10 25 11 27 30 38 29 27 24 20 11 7 8 4 17 25 17 10 6 8 26 34 26 28
74 65 60 60 62 62 61 58 49 46 39 28 18 16 14 12 13 10 11 13 13 12 8 25 23 39 48 42 26 27 23 14 12 8 6 4 18 21 13 14 16 17 27 38 35 27 11
68 63 62 64 72 72 77 67 55 41 31 24 15 12 9 3 6 8 8 5 10 19 10 14 27 29 28 24 17 31 26 9 7 7 12 12 10 7 14 12 16 21 26 32 26 25 21
62 60 63 73 79 86 85 62 38 39 30 18 6 5 3 6 8 19 9 17 8 7 6 9 12 3 14 14 11 25 26 5 4 13 8 14 13 11 14 16 20 24 9 23 17 13 6
62 61 69 73 82 84 92 67 46 45 42 19 11 10 10 9 14 11 16 17 10 6 9 3 7 16 15 5 27 11 21 7 7 6 6 13 1 7 11 10 11 15 17 19 10 8 6
62 64 69 79 83 81 83 76 57 34 20 30 20 17 15 11 11 11 6 22 11 8 9 8 6 7 8 4 5 10 5 4 3 6 8 15 9 8 8 7 20 21 18 5 9 4 6
59 63 67 79 77 82 89 84 42 27 47 35 28 23 19 17 13 10 14 10 8 9 2 8 11 10 6 7 6 5 7 5 7 4 6 7 7 6 7 10 3 9 3 4 4 2 4
54 61 65 73 71 77 87 79 61 45 43 31 39 40 35 29 16 17 17 9 16 4 4 5 9 14 6 11 5 8 3 5 11 3 5 4 8 6 7 8 4 7 6 4 5 2 1
52 55 59 64 64 67 74 71 51 51 48 57 48 35 33 31 20 11 8 10 6 3 5 12 12 7 5 3 7 5 6 5 7 9 3 4 6 7 13 10 4 3 6 6 5 3 5
49 53 55 55 52 54 55 61 54 57 54 48 39 36 31 21 11 10 6 9 6 8 4 10 5 8 8 8 5 2 7 4 4 7 5 3 6 9 6 8 21 13 4 5 3 2 4
47 49 52 51 41 40 38 32 42 37 27 11 11 9 15 15 16 16 8 8 5 10 5 6 3 8 7 8 8 8 7 5 6 6 10 3 3 9 2 7 7 3 8 9 3 6 2
44 47 48 48 40 26 25 23 16 20 11 8 16 6 11 31 15 7 3 4 6 12 20 7 4 8 10 14 8 6 5 6 16 7 5 9 2 6 10 8 7 6 9 6 5 2 5
41 44 44 44 42 25 16 18 7 9 2 9 8 7 17 29 7 6 7 7 10 6 4 0 4 2 7 9 8 4 6 8 12 7 5 3 4 7 16 11 10 8 12 8 4 6 2
40 40 43 44 39 27 15 17 13 11 7 16 8 6 12 15 7 5 9 8 9 16 7 6 4 2 4 6 2 6 2 3 4 3 6 3 5 6 8 9 7 12 18 20 6 7 3
40 39 44 43 35 27 13 7 12 6 6 10 10 2 4 6 9 4 5 7 10 13 15 31 13 12 2 7 7 7 4 5 2 7 3 4 3 6 6 6 3 5 10 19 16 0 6
36 32 36 40 27 25 22 7 10 9 5 8 5 4 3 4 14 5 11 12 11 8 12 10 10 14 18 9 6 7 9 7 2 7 5 6 1 5 6 5 8 5 15 15 13 13 12
31 28 34 38 25 18 23 14 12 13 2 6 13 6 6 10 6 6 6 5 9 4 11 13 4 3 12 6 18 22 13 5 2 1 3 4 6 5 7 9 11 7 7 4 2 5 3
29 27 25 29 19 15 18 12 9 14 14 14 13 6 5 5 3 1 2 5 9 8 5 8 12 4 7 22 11 2 2 6 8 7 1 5 5 4 5 7 5 9 3 2 2 3 3
26 20 20 20 17 10 13 11 6 13 7 4 13 9 7 3 6 8 7 5 6 14 6 3 7 9 19 10 6 8 8 9 6 5 6 4 7 4 4 3 9 6 5 6 5 7 3
24 12 16 8 16 10 7 17 15 15 10 5 10 10 8 5 4 6 7 6 2 4 10 5 8 12 14 6 6 3 4 4 7 16 6 8 8 6 3 2 9 5 3 6 4 8 13
25 7 9 4 16 16 8 21 23 14 10 4 3 9 5 3 1 4 3 5 6 4 1 8 12 9 13 5 4 1 5 2 4 5 4 6 5 3 2 5 11 7 11 8 3 9 11
22 8 4 6 12 19 17 15 17 7 3 11 6 8 5 6 5 2 3 5 5 7 2 11 6 9 8 8 3 3 3 5 4 7 5 7 5 6 2 2 11 17 11 11 8 11 16
18 12 9 9 10 15 18 16 15 14 7 6 7 9 5 5 2 3 1 1 2 2 5 7 1 3 4 4 1 1 4 2 3 7 1 5 11 6 14 10 7 29 7 12 15 15 16
Wind_Direction_850mb
330 327 326 330 335 322 316 314 301 302 311 302 308 296 290 294 298 302 299 291 286 234 210 219 225 212 190 203 221 157 153 153 164 167 158 159 158 158 175 247 328 227 282 306 302 297 287
329 319 314 317 330 332 314 314 303 304 310 302 310 301 292 297 301 304 297 292 279 248 205 204 210 186 184 197 187 188 172 162 167 166 157 174 157 103 202 228 179 320 314 301 302 286 276
337 315 316 312 330 327 320 313 315 311 313 304 312 312 301 297 302 305 303 291 270 242 196 199 213 188 178 163 144 162 177 174 164 149 148 159 231 175 26 320 338 310 310 311 281 261 255
345 336 321 323 329 324 317 323 317 311 306 308 309 307 302 301 305 311 309 288 227 225 205 187 194 175 160 156 169 175 178 151 166 171 184 214 311 176 344 320 340 311 324 323 289 180 253
356 342 331 336 338 336 324 325 315 312 307 306 309 308 299 302 309 325 336 290 169 170 164 173 160 148 147 152 167 176 186 175 182 193 187 164 214 227 83 21 356 317 262 258 297 250 236
353 346 345 342 340 328 328 326 319 315 306 295 302 287 293 307 314 329 3 142 129 139 134 140 144 122 164 173 173 170 169 151 168 165 158 203 116 65 82 130 223 222 259 259 254 286 314
354 350 344 343 337 333 330 327 319 314 317 317 300 289 290 298 303 327 358 59 123 101 123 164 158 96 150 146 170 169 170 166 160 158 153 179 133 221 216 206 206 207 259 280 276 269 284
355 351 348 345 339 332 329 319 313 311 313 313 302 293 293 290 309 333 328 353 67 132 102 89 124 118 140 135 126 155 182 152 162 188 210 172 244 238 230 225 236 249 265 275 284 274 259
354 354 350 343 337 335 326 315 305 290 294 298 288 269 269 325 357 79 93 339 96 111 76 67 88 123 144 140 140 164 170 171 169 197 201 189 237 166 188 232 230 252 260 274 270 295 263
358 360 354 349 346 343 343 351 336 323 252 264 256 222 187 128 113 107 92 133 97 82 87 81 135 130 144 147 91 166 175 192 199 222 216 232 246 223 223 239 225 274 237 266 283 294 300
7 6 358 354 349 349 352 353 339 331 321 198 170 142 122 117 120 110 110 157 139 345 94 101 121 155 151 68 138 161 181 206 227 240 145 254 163 257 244 223 195 259 295 288 313 253 328
11 8 6 355 353 359 357 354 346 345 118 142 144 129 133 130 110 88 108 128 102 39 72 111 124 132 116 134 111 117 137 208 313 263 220 251 268 249 236 249 232 268 285 263 252 166 240
8 9 7 1 3 7 4 3 14 83 127 127 120 116 112 94 90 115 126 122 60 71 258 124 136 133 136 144 103 125 159 196 209 236 318 292 227 238 237 288 310 215 306 273 183 211 281
8 11 10 7 13 17 15 30 67 83 118 115 120 110 100 90 81 109 125 52 67 341 62 153 116 114 171 168 120 165 104 266 215 209 244 336 341 212 167 239 278 259 223 275 313 170 253
5 10 15 18 22 26 28 43 65 86 102 117 121 106 82 76 78 51 8 45 133 228 96 115 129 127 149 200 122 109 229 250 165 197 210 301 290 300 208 227 220 345 269 251 277 50 85
7 10 18 23 27 31 37 55 72 95 106 115 108 85 70 65 62 360 89 101 26 327 306 142 121 160 140 170 116 154 192 212 203 180 173 5 298 195 275 202 233 214 334 317 306 44 68
16 14 15 22 32 29 36 59 94 92 93 87 58 61 37 46 17 60 56 61 320 308 134 215 262 113 126 150 204 204 228 242 215 174 176 279 279 293 103 212 283 289 269 222 250 156 155
17 16 19 15 19 38 44 41 99 132 80 67 42 39 38 18 52 42 67 159 219 247 251 291 213 100 156 184 170 202 232 246 186 196 230 222 201 285 248 258 243 220 260 265 124 218 58
16 25 24 19 10 40 64 45 98 158 15 35 71 57 13 9 67 17 325 272 216 15 143 324 59 209 174 168 105 164 209 223 198 206 230 346 349 334 339 358 6 2 327 299 130 71 75
11 23 25 24 20 45 77 61 63 113 75 20 27 39 19 36 46 20 341 13 8 358 357 7 21 93 76 58 36 134 229 284 225 225 191 101 89 164 174 227 266 329 333 353 84 75 183
8 19 24 29 36 48 61 24 48 20 3 17 35 58 22 347 352 304 303 4 13 9 9 25 19 16 113 64 30 33 2 356 35 15 46 93 86 24 313 307 49 327 339 353 42 3 119
13 13 35 33 47 40 35 7 358 48 61 38 84 113 191 283 306 325 8 358 28 355 23 2 63 7 50 76 24 3 342 38 3 339 52 12 255 59 316 350 36 360 359 4 21 28 61
16 7 31 35 45 48 46 52 32 27 14 88 89 52 319 350 9 54 328 348 360 22 44 52 319 59 39 325 305 297 288 307 349 242 355 73 118 66 284 342 333 350 328 10 23 24 149
9 6 21 47 58 42 43 59 30 35 83 92 68 0 356 325 57 315 53 91 46 13 112 354 21 72 327 327 323 10 340 341 1 16 133 122 98 95 238 4 17 246 272 280 84 33 34
1 8 354 62 78 51 25 20 23 5 325 13 8 16 357 44 337 16 9 84 55 51 53 27 32 3 345 4 45 13 344 350 323 322 359 70 123 65 112 179 286 290 240 188 158 276 252
351 10 344 65 104 76 17 351 325 319 311 260 349 22 20 85 318 327 314 345 63 4 349 322 355 350 0 60 61 109 231 239 312 332 15 84 71 117 114 174 225 236 172 135 107 276 190
340 341 339 337 133 111 56 336 326 306 288 216 325 351 332 24 169 348 349 326 346 7 264 322 344 0 9 39 58 154 282 230 291 285 316 341 359 169 228 252 284 229 148 121 109 247 161
335 295 289 300 168 127 91 41 7 6 214 218 310 324 292 312 212 223 324 341 348 360 53 338 355 357 16 43 72 266 213 259 320 244 204 193 153 220 123 259 292 154 114 169 202 153 174
327 277 248 247 207 153 116 96 52 31 69 157 298 309 313 304 263 226 343 347 304 351 336 5 53 351 6 52 343 316 297 331 196 282 343 265 192 201 184 218 244 192 215 212 181 179 191